| time (UTC) | temp F | wind direction | speed knots | gust knots | rain 1hr in | rain 24hr in | rain mn in | humidity % | barometer mb |
| 20260506004909 | 49 | 10 | 1.7 | 2.6 | 0.00 | 0.00 | 0.31 | 85 | 1009.3 |
| 20260506004403 | 49 | 26 | 0.9 | 3.5 | 0.00 | 0.00 | 0.31 | 85 | 1008.8 |
| 20260506002340 | 50 | 346 | 0.0 | 1.7 | 0.00 | 0.00 | 0.31 | 85 | 1008.8 |
| 20260506001831 | 50 | 345 | 0.0 | 1.7 | 0.00 | 0.00 | 0.31 | 85 | 1008.9 |
| 20260506000405 | 50 | 309 | 0.9 | 2.6 | 0.00 | 0.00 | 0.31 | 84 | 1008.2 |
| 20260505235349 | 50 | 139 | 0.9 | 6.1 | 0.00 | 0.00 | 0.31 | 84 | 1008.2 |
| 20260505234841 | 50 | 360 | 2.6 | 6.1 | 0.00 | 0.00 | 0.31 | 84 | 1008.3 |
| 20260505234331 | 51 | 192 | 0.9 | 2.6 | 0.00 | 0.00 | 0.31 | 84 | 1008.1 |
| 20260505233841 | 51 | 5 | 1.7 | 2.6 | 0.00 | 0.00 | 0.31 | 84 | 1008.1 |
| 20260505232407 | 51 | 320 | 0.9 | 3.5 | 0.00 | 0.00 | 0.31 | 84 | 1008.4 |
| 20260505231342 | 51 | 20 | 0.9 | 3.5 | 0.00 | 0.00 | 0.31 | 84 | 1007.9 |
| 20260505230836 | 51 | 30 | 1.7 | 4.3 | 0.00 | 0.00 | 0.31 | 84 | 1007.8 |
| 20260505230330 | 51 | 320 | 1.7 | 4.3 | 0.00 | 0.00 | 0.31 | 84 | 1007.7 |
| 20260505225829 | 52 | 325 | 1.7 | 4.3 | 0.00 | 0.00 | 0.31 | 84 | 1007.6 |
| 20260505225333 | 52 | 342 | 1.7 | 5.2 | 0.00 | 0.00 | 0.31 | 84 | 1007.5 |
| 20260505223357 | 52 | 284 | 2.6 | 4.3 | 0.00 | 0.00 | 0.31 | 85 | 1007.3 |
| 20260505222906 | 53 | 234 | 0.9 | 4.3 | 0.00 | 0.00 | 0.31 | 85 | 1007.4 |
| 20260505221858 | 53 | 344 | 1.7 | 3.5 | 0.00 | 0.00 | 0.31 | 86 | 1007.6 |
| 20260505215401 | 54 | 277 | 1.7 | 3.5 | 0.00 | 0.00 | 0.31 | 86 | 1007.0 |
| 20260505214848 | 54 | 39 | 0.9 | 2.6 | 0.00 | 0.00 | 0.31 | 86 | 1007.0 |
| 20260505214353 | 54 | 310 | 1.7 | 2.6 | 0.00 | 0.00 | 0.31 | 86 | 1007.1 |
| 20260505213908 | 54 | 63 | 0.9 | 2.6 | 0.00 | 0.00 | 0.31 | 86 | 1007.0 |
| 20260505212839 | 54 | 255 | 2.6 | 3.5 | 0.00 | 0.00 | 0.31 | 85 | 1006.7 |
| 20260505212330 | 55 | 332 | 1.7 | 3.5 | 0.00 | 0.00 | 0.31 | 86 | 1006.7 |
| 20260505211814 | 55 | 294 | 0.9 | 3.5 | 0.00 | 0.00 | 0.31 | 86 | 1006.7 |
| 20260505211330 | 55 | 325 | 0.0 | 1.7 | 0.00 | 0.00 | 0.31 | 86 | 1006.7 |
| 20260505210824 | 55 | 15 | 1.7 | 1.7 | 0.00 | 0.00 | 0.31 | 86 | 1006.9 |
| 20260505203404 | 56 | 272 | 0.9 | 2.6 | 0.00 | 0.00 | 0.31 | 86 | 1007.4 |
| 20260505202910 | 56 | 297 | 1.7 | 4.3 | 0.00 | 0.00 | 0.31 | 86 | 1007.1 |
| 20260505200904 | 57 | 22 | 0.9 | 2.6 | 0.00 | 0.00 | 0.31 | 86 | 1005.9 |
| 20260505200410 | 57 | 319 | 0.9 | 4.3 | 0.00 | 0.00 | 0.31 | 86 | 1006.1 |
| 20260505195909 | 57 | 340 | 1.7 | 4.3 | 0.00 | 0.00 | 0.31 | 86 | 1006.2 |
| 20260505195358 | 57 | 32 | 0.9 | 4.3 | 0.00 | 0.00 | 0.31 | 87 | 1006.0 |
| 20260505194409 | 57 | 94 | 0.9 | 1.7 | 0.00 | 0.00 | 0.31 | 86 | 1006.4 |
| 20260505193907 | 57 | 333 | 0.0 | 2.6 | 0.00 | 0.00 | 0.31 | 86 | 1006.7 |
| 20260505192841 | 58 | 88 | 0.9 | 3.5 | 0.00 | 0.00 | 0.30 | 86 | 1006.5 |
| 20260505192343 | 58 | 20 | 0.9 | 3.5 | 0.00 | 0.00 | 0.29 | 86 | 1006.4 |
| 20260505191844 | 58 | 254 | 0.9 | 3.5 | 0.00 | 0.00 | 0.29 | 86 | 1006.5 |
| 20260505191337 | 58 | 323 | 0.9 | 3.5 | 0.00 | 0.00 | 0.29 | 86 | 1006.5 |
| 20260505190828 | 58 | 310 | 0.9 | 2.6 | 0.00 | 0.00 | 0.29 | 86 | 1006.2 |
| 20260505190323 | 58 | 286 | 0.0 | 2.6 | 0.00 | 0.00 | 0.29 | 86 | 1006.1 |
| 20260505185814 | 58 | 168 | 1.7 | 2.6 | 0.00 | 0.00 | 0.29 | 86 | 1005.7 |
| 20260505185316 | 58 | 236 | 0.9 | 2.6 | 0.00 | 0.00 | 0.29 | 85 | 1005.6 |
| 20260505184910 | 58 | 26 | 0.9 | 2.6 | 0.00 | 0.00 | 0.29 | 85 | 1005.6 |
| 20260505184408 | 59 | 340 | 1.7 | 3.5 | 0.00 | 0.00 | 0.29 | 85 | 1005.9 |
| 20260505183405 | 59 | 250 | 0.0 | 2.6 | 0.00 | 0.00 | 0.29 | 84 | 1005.9 |
| 20260505182906 | 59 | 234 | 0.9 | 6.1 | 0.00 | 0.00 | 0.29 | 84 | 1005.8 |
| 20260505181905 | 60 | 246 | 2.6 | 6.1 | 0.00 | 0.00 | 0.29 | 83 | 1005.7 |
| 20260505181404 | 61 | 5 | 0.9 | 5.2 | 0.00 | 0.00 | 0.28 | 84 | 1005.6 |
| 20260505180410 | 62 | 184 | 0.0 | 2.6 | 0.00 | 0.00 | 0.28 | 83 | 1005.4 |
| 20260505175402 | 62 | 53 | 0.9 | 1.7 | 0.00 | 0.00 | 0.28 | 84 | 1005.2 |
| 20260505174843 | 63 | 331 | 0.9 | 1.7 | 0.00 | 0.00 | 0.28 | 84 | 1005.2 |
| 20260505174402 | 63 | 37 | 0.9 | 3.5 | 0.00 | 0.00 | 0.27 | 84 | 1005.3 |
| 20260505173858 | 63 | 22 | 1.7 | 3.5 | 0.00 | 0.00 | 0.27 | 83 | 1005.2 |
| 20260505172829 | 64 | 11 | 0.9 | 1.7 | 0.00 | 0.00 | 0.27 | 83 | 1005.2 |
| 20260505172347 | 64 | 355 | 0.9 | 1.7 | 0.00 | 0.00 | 0.27 | 83 | 1005.4 |
| 20260505170407 | 65 | 38 | 1.7 | 1.7 | 0.00 | 0.00 | 0.27 | 84 | 1004.9 |
| 20260505165905 | 65 | 42 | 0.9 | 1.7 | 0.00 | 0.00 | 0.27 | 84 | 1004.8 |
| 20260505165405 | 65 | 40 | 0.0 | 0.9 | 0.00 | 0.00 | 0.27 | 84 | 1004.8 |
| 20260505164903 | 65 | 38 | 0.0 | 1.7 | 0.00 | 0.00 | 0.27 | 84 | 1004.8 |
| 20260505164400 | 65 | 36 | 0.0 | 1.7 | 0.00 | 0.00 | 0.27 | 84 | 1004.8 |
| 20260505163852 | 65 | 36 | 0.9 | 1.7 | 0.00 | 0.00 | 0.27 | 84 | 1004.8 |
| 20260505163353 | 65 | 30 | 0.9 | 1.7 | 0.00 | 0.00 | 0.27 | 84 | 1004.8 |
| 20260505162900 | 66 | 29 | 0.0 | 0.9 | 0.00 | 0.00 | 0.27 | 84 | 1004.8 |
| 20260505162353 | 66 | 26 | 0.0 | 2.6 | 0.00 | 0.00 | 0.27 | 84 | 1005.0 |
| 20260505161842 | 66 | 26 | 0.9 | 2.6 | 0.00 | 0.00 | 0.27 | 84 | 1005.0 |
| 20260505161348 | 66 | 30 | 0.9 | 2.6 | 0.00 | 0.00 | 0.27 | 84 | 1005.0 |
| 20260505160844 | 66 | 34 | 0.9 | 1.7 | 0.00 | 0.00 | 0.27 | 85 | 1005.0 |
| 20260505160327 | 65 | 34 | 0.0 | 1.7 | 0.00 | 0.00 | 0.27 | 86 | 1004.9 |
| 20260505152855 | 65 | 46 | 0.9 | 1.7 | 0.00 | 0.00 | 0.27 | 88 | 1004.3 |
| 20260505150318 | 64 | 34 | 0.9 | 3.5 | 0.00 | 0.00 | 0.27 | 90 | 1004.5 |
| 20260505140353 | 62 | 76 | 0.0 | 1.7 | 0.00 | 0.00 | 0.27 | 91 | 1005.2 |
| 20260505124850 | 61 | 317 | 0.0 | 0.0 | 0.00 | 0.00 | 0.27 | 90 | 1004.9 |
| 20260505124401 | 61 | 317 | 0.0 | 0.9 | 0.00 | 0.00 | 0.27 | 90 | 1004.7 |
| 20260505123906 | 61 | 317 | 0.0 | 0.9 | 0.00 | 0.00 | 0.27 | 90 | 1004.5 |
| 20260505123359 | 61 | 317 | 0.0 | 0.9 | 0.00 | 0.00 | 0.27 | 90 | 1004.5 |
| 20260505122846 | 61 | 317 | 0.0 | 1.7 | 0.00 | 0.00 | 0.27 | 90 | 1004.5 |
| 20260505122341 | 61 | 316 | 0.9 | 1.7 | 0.00 | 0.00 | 0.27 | 90 | 1004.5 |
| 20260505121835 | 61 | 316 | 0.9 | 1.7 | 0.00 | 0.00 | 0.27 | 90 | 1004.5 |
| 20260505121319 | 61 | 317 | 0.0 | 0.9 | 0.00 | 0.00 | 0.27 | 90 | 1004.4 |
| 20260505120833 | 61 | 316 | 0.9 | 0.9 | 0.00 | 0.00 | 0.27 | 89 | 1004.4 |
| 20260505120316 | 61 | 317 | 0.0 | 1.7 | 0.00 | 0.00 | 0.26 | 89 | 1004.1 |
| 20260505114910 | 61 | 267 | 0.0 | 0.9 | 0.00 | 0.00 | 0.26 | 89 | 1003.9 |
| 20260505113401 | 61 | 269 | 0.9 | 1.7 | 0.00 | 0.00 | 0.26 | 89 | 1003.5 |
| 20260505112409 | 61 | 269 | 0.0 | 1.7 | 0.00 | 0.00 | 0.26 | 89 | 1003.1 |
| 20260505111900 | 61 | 269 | 0.0 | 2.6 | 0.00 | 0.00 | 0.26 | 89 | 1003.1 |
| 20260505110344 | 61 | 169 | 1.7 | 2.6 | 0.00 | 0.00 | 0.26 | 89 | 1003.0 |
| 20260505101845 | 61 | 192 | 0.0 | 1.7 | 0.00 | 0.00 | 0.26 | 88 | 1003.8 |
| 20260505092358 | 62 | 179 | 0.9 | 2.6 | 0.00 | 0.00 | 0.23 | 87 | 1003.8 |
| 20260505091854 | 62 | 236 | 0.9 | 1.7 | 0.00 | 0.00 | 0.23 | 86 | 1004.7 |
| 20260505091340 | 62 | 228 | 0.0 | 1.7 | 0.00 | 0.00 | 0.22 | 86 | 1004.6 |
| 20260505090832 | 62 | 206 | 0.9 | 1.7 | 0.00 | 0.00 | 0.22 | 86 | 1004.4 |
| 20260505090320 | 62 | 206 | 0.0 | 0.9 | 0.00 | 0.00 | 0.21 | 86 | 1003.9 |
| 20260505084905 | 62 | 224 | 0.0 | 1.7 | 0.00 | 0.00 | 0.17 | 85 | 1004.6 |
| 20260505081408 | 62 | 244 | 0.9 | 3.5 | 0.00 | 0.00 | 0.06 | 82 | 1004.6 |
| 20260505080907 | 63 | 302 | 0.9 | 3.5 | 0.00 | 0.00 | 0.05 | 82 | 1004.3 |
| 20260505073812 | 63 | 273 | 0.0 | 0.9 | 0.00 | 0.00 | 0.00 | 76 | 1003.7 |
| 20260505073316 | 64 | 273 | 0.0 | 1.7 | 0.00 | 0.00 | 0.00 | 76 | 1003.8 |
| 20260505072816 | 64 | 266 | 0.0 | 1.7 | 0.00 | 0.00 | 0.00 | 75 | 1003.9 |
| 20260505071908 | 64 | 197 | 0.0 | 0.0 | 0.00 | 0.00 | 0.00 | 73 | 1003.6 |
| 20260505070901 | 64 | 197 | 0.0 | 0.0 | 0.00 | 0.00 | 0.00 | 73 | 1003.7 |
| 20260505070351 | 64 | 197 | 0.0 | 0.0 | 0.00 | 0.00 | 0.00 | 72 | 1003.7 |
| 20260505065818 | 64 | 197 | 0.0 | 0.0 | 0.00 | 0.00 | 0.00 | 73 | 1003.7 |
| 20260505065312 | 64 | 197 | 0.0 | 0.0 | 0.00 | 0.00 | 0.00 | 73 | 1003.5 |
| 20260505064827 | 64 | 197 | 0.0 | 0.0 | 0.00 | 0.00 | 0.00 | 73 | 1004.0 |
| 20260505064320 | 64 | 197 | 0.0 | 0.0 | 0.00 | 0.00 | 0.00 | 73 | 1004.0 |
| 20260505063815 | 64 | 197 | 0.0 | 0.0 | 0.00 | 0.00 | 0.00 | 73 | 1004.1 |
| 20260505063329 | 64 | 197 | 0.0 | 0.0 | 0.00 | 0.00 | 0.00 | 73 | 1004.0 |
| 20260505061816 | 64 | 197 | 0.0 | 0.0 | 0.00 | 0.00 | 0.00 | 72 | 1004.3 |
| 20260505061329 | 64 | 197 | 0.0 | 0.0 | 0.00 | 0.00 | 0.00 | 72 | 1004.5 |
| 20260505060824 | 64 | 198 | 0.0 | 0.0 | 0.00 | 0.00 | 0.00 | 73 | 1004.5 |
| 20260505060317 | 64 | 198 | 0.0 | 0.0 | 0.00 | 0.00 | 0.00 | 73 | 1004.5 |
| 20260505055812 | 64 | 198 | 0.0 | 0.0 | 0.00 | 0.00 | 0.00 | 73 | 1004.7 |
| 20260505055328 | 64 | 197 | 0.0 | 0.0 | 0.00 | 0.00 | 0.00 | 73 | 1004.6 |
| 20260505054825 | 64 | 197 | 0.0 | 0.0 | 0.00 | 0.00 | 0.00 | 73 | 1004.6 |
| 20260505054320 | 64 | 198 | 0.0 | 0.0 | 0.00 | 0.00 | 0.00 | 73 | 1004.4 |
| 20260505053816 | 64 | 198 | 0.0 | 0.0 | 0.00 | 0.00 | 0.00 | 72 | 1004.3 |
| 20260505053310 | 64 | 198 | 0.0 | 0.0 | 0.00 | 0.00 | 0.00 | 72 | 1004.2 |
| 20260505052827 | 64 | 198 | 0.0 | 0.0 | 0.00 | 0.00 | 0.00 | 72 | 1004.3 |
| 20260505052320 | 64 | 198 | 0.0 | 0.0 | 0.00 | 0.00 | 0.00 | 72 | 1004.3 |
| 20260505051815 | 64 | 198 | 0.0 | 0.0 | 0.00 | 0.00 | 0.00 | 72 | 1004.4 |
| 20260505051327 | 64 | 198 | 0.0 | 0.0 | 0.00 | 0.00 | 0.00 | 72 | 1004.4 |
| 20260505050821 | 64 | 197 | 0.0 | 0.0 | 0.00 | 0.00 | 0.00 | 71 | 1004.5 |
| 20260505050315 | 65 | 198 | 0.0 | 0.0 | 0.00 | 0.00 | 0.00 | 71 | 1004.7 |
| 20260505035345 | 67 | 198 | 0.0 | 1.7 | 0.00 | 0.00 | 0.00 | 65 | 1005.1 |
| 20260505034825 | 67 | 198 | 0.9 | 1.7 | 0.00 | 0.00 | 0.00 | 65 | 1005.2 |
| 20260505034319 | 68 | 199 | 0.0 | 0.0 | 0.00 | 0.00 | 0.00 | 64 | 1005.2 |
| 20260505033827 | 68 | 199 | 0.0 | 0.9 | 0.00 | 0.00 | 0.00 | 64 | 1005.3 |
| 20260505033321 | 68 | 198 | 0.0 | 1.7 | 0.00 | 0.00 | 0.00 | 64 | 1005.3 |
| 20260505032820 | 68 | 199 | 0.0 | 1.7 | 0.00 | 0.00 | 0.00 | 64 | 1005.4 |
| 20260505031400 | 69 | 205 | 0.0 | 0.9 | 0.00 | 0.00 | 0.00 | 63 | 1005.3 |
| 20260505030905 | 69 | 204 | 0.0 | 0.9 | 0.00 | 0.00 | 0.00 | 62 | 1005.4 |
| 20260505030358 | 69 | 205 | 0.0 | 1.7 | 0.00 | 0.00 | 0.00 | 62 | 1005.3 |
| 20260505025837 | 69 | 204 | 0.0 | 1.7 | 0.00 | 0.00 | 0.00 | 62 | 1005.3 |
| 20260505025322 | 69 | 205 | 0.9 | 1.7 | 0.00 | 0.00 | 0.00 | 61 | 1005.2 |
| 20260505023409 | 71 | 211 | 0.0 | 0.0 | 0.00 | 0.00 | 0.00 | 58 | 1005.1 |
| 20260505021903 | 71 | 211 | 0.0 | 0.0 | 0.00 | 0.00 | 0.00 | 58 | 1004.8 |
| 20260505021401 | 72 | 211 | 0.0 | 0.0 | 0.00 | 0.00 | 0.00 | 57 | 1004.6 |
| 20260505020858 | 72 | 211 | 0.0 | 0.0 | 0.00 | 0.00 | 0.00 | 57 | 1004.6 |
| 20260505020343 | 72 | 211 | 0.0 | 0.9 | 0.00 | 0.00 | 0.00 | 57 | 1004.5 |
| 20260505015831 | 73 | 211 | 0.0 | 1.7 | 0.00 | 0.00 | 0.00 | 56 | 1004.3 |
| 20260505015338 | 73 | 211 | 0.0 | 1.7 | 0.00 | 0.00 | 0.00 | 56 | 1004.3 |
| 20260505014411 | 73 | 212 | 0.0 | 1.7 | 0.00 | 0.00 | 0.00 | 55 | 1004.4 |
| 20260505013859 | 73 | 211 | 0.9 | 2.6 | 0.00 | 0.00 | 0.00 | 55 | 1004.2 |
| 20260505013400 | 74 | 178 | 0.0 | 2.6 | 0.00 | 0.00 | 0.00 | 54 | 1004.1 |
| 20260505010906 | 74 | 213 | 0.9 | 4.3 | 0.00 | 0.00 | 0.00 | 53 | 1003.7 |
| 20260505005903 | 75 | 184 | 0.9 | 3.5 | 0.00 | 0.00 | 0.00 | 52 | 1003.6 |